DW3024 Weather Reports


time (UTC)temp
C
wind
direction
speed
KPH
gust
KPH
rain 1hr
cm
rain 24hr
cm
rain mn
cm
humidity
%
barometer
mb
20260906113932 21 341 0.0 0.0 0.00 0.00 0.00 93 1010.8
20260906113418 21 342 0.0 0.0 0.00 0.00 0.00 93 1010.7
20260906112921 21 355 0.0 0.0 0.00 0.00 0.00 93 1010.7
20260906112441 21 355 0.0 0.0 0.00 0.00 0.00 93 1010.8
20260906111911 21 355 0.0 0.0 0.00 0.00 0.00 93 1010.8
20260906111410 21 355 0.0 1.6 0.00 0.00 0.00 93 1010.7
20260906110421 21 355 0.0 1.6 0.00 0.00 0.00 93 1010.7
20260906105908 21 355 0.0 1.6 0.00 0.00 0.00 93 1010.6
20260906105438 21 355 0.0 1.6 0.00 0.00 0.00 93 1010.5
20260906104921 21 355 1.6 3.2 0.00 0.00 0.00 93 1010.4
20260906104442 21 355 1.6 3.2 0.00 0.00 0.00 93 1010.4
20260906103935 21 342 1.6 3.2 0.00 0.00 0.00 93 1010.3
20260906103442 21 337 0.0 1.6 0.00 0.00 0.00 93 1010.2
20260906102903 21 337 1.6 1.6 0.00 0.00 0.00 93 1010.2
20260906102418 21 337 1.6 1.6 0.00 0.00 0.00 93 1010.2
20260906101905 21 337 0.0 1.6 0.00 0.00 0.00 93 1010.1
20260906101428 21 337 0.0 0.0 0.00 0.00 0.00 93 1010.1
20260906100408 21 337 0.0 0.0 0.00 0.00 0.00 93 1010.1
20260906095932 21 337 0.0 1.6 0.00 0.00 0.00 93 1010.0
20260906095407 21 337 0.0 1.6 0.00 0.00 0.00 92 1010.0
20260906094404 21 337 0.0 1.6 0.00 0.00 0.00 92 1010.0
20260906093925 21 337 0.0 0.0 0.00 0.00 0.00 92 1009.9
20260906093430 21 337 0.0 0.0 0.00 0.00 0.00 92 1009.8
20260906092930 21 337 0.0 0.0 0.00 0.00 0.00 92 1009.7
20260906092404 22 337 0.0 1.6 0.00 0.00 0.00 92 1009.7
20260906091944 22 337 0.0 3.2 0.00 0.00 0.00 92 1009.7
20260906091408 22 337 0.0 4.8 0.00 0.00 0.00 92 1009.7
20260906090940 22 324 3.2 4.8 0.00 0.00 0.00 92 1009.7
20260906090438 22 306 3.2 4.8 0.00 0.00 0.00 92 1009.7
20260906085428 22 334 1.6 1.6 0.00 0.00 0.00 92 1009.8
20260906084940 22 334 0.0 4.8 0.00 0.00 0.00 92 1009.7
20260906084406 22 331 1.6 4.8 0.00 0.00 0.00 92 1009.7
20260906083435 22 321 1.6 3.2 0.00 0.00 0.00 92 1009.7
20260906082924 22 321 0.0 1.6 0.00 0.00 0.00 92 1009.8
20260906082420 22 323 0.0 3.2 0.00 0.00 0.00 92 1009.7
20260906080928 22 335 1.6 1.6 0.00 0.00 0.00 92 1009.7
20260906075939 22 335 0.0 3.2 0.00 0.00 0.00 92 1009.8
20260906075419 22 335 0.0 3.2 0.00 0.00 0.00 92 1009.8
20260906074935 22 335 0.0 3.2 0.00 0.00 0.00 92 1009.8
20260906074427 22 336 1.6 3.2 0.00 0.00 0.00 92 1009.9
20260906073904 22 332 1.6 3.2 0.00 0.00 0.00 92 1009.9
20260906073445 22 338 1.6 3.2 0.00 0.00 0.00 92 1009.8
20260906072930 22 338 1.6 4.8 0.00 0.00 0.00 92 1010.0
20260906072414 22 328 1.6 4.8 0.00 0.00 0.00 92 1010.1
20260906071944 22 329 1.6 4.8 0.00 0.00 0.00 92 1010.1
20260906071416 22 321 3.2 4.8 0.00 0.00 0.00 92 1010.2
20260906070902 22 9 1.6 3.2 0.00 0.00 0.00 92 1010.2
20260906070426 22 9 0.0 1.6 0.00 0.00 0.00 92 1010.2
20260906065433 23 9 0.0 3.2 0.00 0.00 0.00 92 1010.2
20260906064907 23 9 0.0 3.2 0.00 0.00 0.00 92 1010.4
20260906064407 23 9 1.6 3.2 0.00 0.00 0.00 92 1010.6
20260906063911 23 9 1.6 3.2 0.00 0.00 0.00 92 1010.5
20260906063415 23 9 1.6 3.2 0.00 0.00 0.00 92 1010.4
20260906062930 23 9 0.0 1.6 0.00 0.00 0.00 92 1010.3
20260906062416 23 9 0.0 1.6 0.00 0.00 0.00 92 1010.3
20260906061402 23 9 0.0 1.6 0.00 0.00 0.00 92 1010.7
20260906060905 23 9 0.0 1.6 0.00 0.00 0.00 91 1010.8
20260906060406 23 9 0.0 4.8 0.00 0.00 0.00 91 1010.7
20260906055916 23 9 0.0 4.8 0.00 0.00 0.00 91 1010.8
20260906055418 23 5 3.2 4.8 0.00 0.00 0.00 91 1010.6
20260906054921 23 57 0.0 1.6 0.00 0.00 0.00 91 1010.6
20260906054445 23 57 0.0 1.6 0.00 0.00 0.00 91 1010.6
20260906053924 23 57 1.6 1.6 0.00 0.00 0.00 91 1010.7
20260906053443 23 57 0.0 3.2 0.00 0.00 0.00 91 1010.7
20260906052914 23 57 1.6 3.2 0.00 0.00 0.00 91 1010.6
20260906052418 24 349 1.6 3.2 0.00 0.00 0.00 90 1010.5
20260906051927 24 338 1.6 3.2 0.00 0.00 0.00 90 1010.5
20260906050932 24 338 0.0 3.2 0.00 0.00 0.00 90 1010.7
20260906050416 24 338 1.6 3.2 0.00 0.00 0.00 91 1010.8
20260906045902 24 337 1.6 3.2 0.00 0.00 0.00 91 1010.9
20260906045419 24 336 1.6 3.2 0.00 0.00 0.00 91 1010.8
20260906043914 25 350 0.0 0.0 0.00 0.00 0.00 90 1010.9
20260906043424 25 350 0.0 0.0 0.00 0.00 0.00 90 1011.0
20260906042935 25 350 0.0 1.6 0.00 0.00 0.00 90 1011.1
20260906042402 25 350 0.0 1.6 0.00 0.00 0.00 90 1011.2
20260906041933 25 350 0.0 3.2 0.00 0.00 0.00 91 1011.2
20260906041438 25 350 0.0 4.8 0.00 0.00 0.00 91 1011.2
20260906040940 25 347 1.6 4.8 0.00 0.00 0.00 91 1011.2
20260906040430 25 355 0.0 6.4 0.00 0.00 0.00 91 1011.2
20260906035904 26 52 1.6 6.4 0.00 0.00 0.00 91 1011.3
20260906035411 26 13 1.6 3.2 0.00 0.00 0.00 91 1011.3
20260906034942 26 331 0.0 3.2 0.00 0.00 0.00 91 1011.3
20260906034438 26 14 1.6 3.2 0.00 0.00 0.00 91 1011.3
20260906033942 26 45 0.0 1.6 0.00 0.00 0.00 91 1011.1
20260906033406 26 45 0.0 1.6 0.00 0.00 0.00 91 1011.0
20260906032903 26 45 1.6 1.6 0.00 0.00 0.00 91 1010.9
20260906032444 26 45 0.0 1.6 0.00 0.00 0.00 91 1010.8
20260906031408 26 45 1.6 1.6 0.00 0.00 0.00 90 1011.0
20260906030921 26 45 0.0 3.2 0.00 0.00 0.00 90 1011.0
20260906030408 26 45 0.0 3.2 0.00 0.00 0.00 90 1011.0
20260906025935 27 34 0.0 4.8 0.00 0.00 0.00 90 1011.2
20260906025442 27 33 1.6 6.4 0.00 0.00 0.00 89 1011.2
20260906024945 27 12 3.2 8.0 0.00 0.00 0.00 89 1011.1
20260906024434 27 329 1.6 11.3 0.00 0.00 0.00 88 1010.9
20260906023938 27 311 3.2 11.3 0.00 0.00 0.00 88 1010.8
20260906023435 27 297 6.4 12.9 0.00 0.00 0.00 88 1010.7
20260906022924 27 269 6.4 12.9 0.00 0.00 0.00 88 1010.6
20260906021931 27 231 3.2 6.4 0.00 0.00 0.00 88 1010.1
20260906020910 27 57 0.0 6.4 0.00 0.00 0.00 89 1010.0
20260906020420 27 231 1.6 11.3 0.00 0.00 0.00 89 1009.9
20260906015933 27 187 4.8 11.3 0.00 0.00 0.00 89 1009.7
20260906015419 27 155 3.2 8.0 0.00 0.00 0.00 89 1009.6
20260906014912 27 177 4.8 8.0 0.00 0.00 0.00 89 1010.1
20260906014412 27 216 3.2 4.8 0.00 0.00 0.00 88 1010.2
20260906013916 27 51 3.2 6.4 0.00 0.00 0.00 87 1009.9
20260906013412 28 48 4.8 9.7 0.00 0.00 0.00 86 1009.8
20260906012432 28 148 6.4 12.9 0.00 0.00 0.00 85 1009.0
20260906011932 28 163 4.8 8.0 0.00 0.00 0.00 85 1009.3
20260906011436 28 185 3.2 4.8 0.00 0.00 0.00 84 1009.8
20260906010935 28 217 1.6 8.0 0.00 0.00 0.00 84 1010.1
20260906005908 28 264 3.2 12.9 0.00 0.00 0.00 84 1010.6
20260906005435 28 265 4.8 12.9 0.00 0.00 0.00 84 1010.6
20260906004922 28 245 4.8 11.3 0.00 0.00 0.00 84 1010.4
20260906004410 28 273 4.8 11.3 0.00 0.00 0.00 84 1010.7
20260906003440 28 210 3.2 11.3 0.00 0.00 0.00 83 1010.4
20260906002925 28 192 4.8 11.3 0.00 0.00 0.00 83 1010.3
20260906001934 28 206 3.2 12.9 0.00 0.00 0.00 83 1010.4
20260906001413 28 176 4.8 11.3 0.00 0.00 0.00 84 1010.3
20260906000919 28 189 4.8 8.0 0.00 0.00 0.00 84 1010.6
20260906000413 28 182 3.2 8.0 0.00 0.00 0.00 83 1010.6
20260905235925 28 191 3.2 6.4 0.00 0.00 0.00 83 1010.6
20260905235444 29 187 3.2 8.0 0.00 0.00 0.00 83 1010.7
20260905234917 29 176 3.2 11.3 0.00 0.00 0.00 82 1010.6
20260905234413 29 162 3.2 11.3 0.00 0.00 0.00 82 1010.6
20260905233943 29 161 4.8 9.7 0.00 0.00 0.00 82 1010.6
20260905233417 29 200 3.2 9.7 0.00 0.00 0.00 81 1010.7
20260905232944 29 197 1.6 8.0 0.00 0.00 0.00 81 1010.8
20260905232410 30 192 3.2 8.0 0.00 0.00 0.00 80 1010.8
20260905231936 30 191 3.2 8.0 0.00 0.00 0.00 80 1010.6
20260905231416 30 182 3.2 8.0 0.00 0.00 0.00 80 1010.5
20260905230945 30 201 3.2 8.0 0.00 0.00 0.00 80 1010.4
20260905230435 30 171 3.2 9.7 0.00 0.00 0.00 79 1010.4
20260905225419 30 161 6.4 12.9 0.00 0.00 0.00 78 1010.6
20260905224936 30 164 4.8 14.5 0.00 0.00 0.00 77 1010.3
20260905223912 31 195 8.0 14.5 0.00 0.00 0.00 75 1010.4
20260905223403 31 196 8.0 14.5 0.00 0.00 0.00 75 1010.3
20260905222903 31 197 4.8 14.5 0.00 0.00 0.00 76 1010.4
20260905221943 31 180 8.0 17.7 0.00 0.00 0.00 75 1010.1
20260905221414 31 182 6.4 17.7 0.00 0.00 0.00 75 1010.1
20260905220946 31 183 11.3 17.7 0.00 0.00 0.00 75 1010.1
20260905220405 31 184 9.7 16.1 0.00 0.00 0.00 75 1010.1
20260905215901 31 215 8.0 16.1 0.00 0.00 0.00 75 1010.1
20260905215443 31 156 6.4 20.9 0.00 0.00 0.00 75 1010.0
20260905214440 32 156 8.0 19.3 0.00 0.00 0.00 74 1010.0
20260905213907 32 186 8.0 20.9 0.00 0.00 0.00 74 1010.1
20260905213402 32 187 9.7 20.9 0.00 0.00 0.00 73 1010.0
20260905212938 32 171 9.7 17.7 0.00 0.00 0.00 72 1010.1
20260905212441 32 172 8.0 17.7 0.00 0.00 0.00 73 1009.9
20260905211932 32 153 8.0 14.5 0.00 0.00 0.00 72 1009.9
20260905210909 33 169 8.0 16.1 0.00 0.00 0.00 70 1009.9
20260905210430 33 157 9.7 16.1 0.00 0.00 0.00 70 1009.7
20260905205903 34 189 6.4 14.5 0.00 0.00 0.00 67 1009.7
20260905205405 34 170 3.2 6.4 0.00 0.00 0.00 58 1009.5
20260905204426 34 309 1.6 6.4 0.00 0.00 0.00 56 1009.5
20260905203922 34 289 3.2 6.4 0.00 0.00 0.00 56 1009.5
20260905202925 34 43 3.2 6.4 0.00 0.00 0.00 56 1009.5
20260905202443 34 254 3.2 6.4 0.00 0.00 0.00 56 1009.6
20260905201419 35 280 4.8 9.7 0.00 0.00 0.00 57 1009.4
20260905200938 35 275 3.2 8.0 0.00 0.00 0.00 56 1009.5
20260905200435 34 290 4.8 6.4 0.00 0.00 0.00 59 1009.7
20260905195945 34 307 3.2 8.0 0.00 0.00 0.00 59 1009.5
20260905195419 34 297 1.6 12.9 0.00 0.00 0.00 57 1009.7
20260905194911 34 304 4.8 12.9 0.00 0.00 0.00 60 1009.9
20260905194433 34 348 4.8 12.9 0.00 0.00 0.00 59 1009.9
20260905193936 34 281 4.8 11.3 0.00 0.00 0.00 57 1009.9
20260905192907 34 304 4.8 12.9 0.00 0.00 0.00 58 1010.1
20260905192421 34 293 8.0 12.9 0.00 0.00 0.00 59 1010.2
20260905191924 33 306 3.2 9.7 0.00 0.00 0.00 59 1010.2
20260905191428 33 245 1.6 6.4 0.00 0.00 0.00 58 1010.3
20260905190915 33 210 1.6 6.4 0.00 0.00 0.00 60 1010.4
20260905185923 33 278 4.8 6.4 0.00 0.00 0.00 62 1010.7
20260905185409 33 287 1.6 11.3 0.00 0.00 0.00 60 1010.7
20260905184934 33 332 4.8 11.3 0.00 0.00 0.00 60 1010.7
20260905184427 33 292 4.8 11.3 0.00 0.00 0.00 62 1010.9
20260905183912 33 305 3.2 16.1 0.00 0.00 0.00 61 1010.9
20260905183429 33 298 9.7 16.1 0.00 0.00 0.00 61 1011.0
20260905182442 33 353 6.4 12.9 0.00 0.00 0.00 63 1011.0
20260905181924 33 252 3.2 14.5 0.00 0.00 0.00 62 1011.1
20260905181410 33 268 8.0 14.5 0.00 0.00 0.00 61 1011.2
20260905180926 33 295 4.8 11.3 0.00 0.00 0.00 61 1011.2
20260905180413 33 283 4.8 11.3 0.00 0.00 0.00 65 1011.3
20260905175914 33 230 6.4 11.3 0.00 0.00 0.00 64 1011.5
20260905175423 33 269 3.2 9.7 0.00 0.00 0.00 64 1011.5
20260905174932 33 250 4.8 6.4 0.00 0.00 0.00 58 1011.6
20260905173425 32 263 1.6 12.9 0.00 0.00 0.00 64 1011.8
20260905172937 33 265 8.0 12.9 0.00 0.00 0.00 66 1011.7
20260905172414 32 275 4.8 11.3 0.00 0.00 0.00 64 1011.8
20260905171418 32 245 4.8 11.3 0.00 0.00 0.00 65 1011.9
20260905170915 32 250 3.2 12.9 0.00 0.00 0.00 65 1012.1
20260905165432 32 203 3.2 12.9 0.00 0.00 0.00 66 1012.2
20260905164916 32 260 3.2 11.3 0.00 0.00 0.00 66 1012.4
20260905164426 32 260 3.2 14.5 0.00 0.00 0.00 65 1012.4
20260905163932 32 274 6.4 14.5 0.00 0.00 0.00 67 1012.5
20260905163433 32 291 8.0 12.9 0.00 0.00 0.00 68 1012.7
20260905162945 32 287 4.8 8.0 0.00 0.00 0.00 67 1012.7
20260905161902 32 286 4.8 9.7 0.00 0.00 0.00 70 1012.9
20260905160905 32 227 1.6 12.9 0.00 0.00 0.00 70 1013.2
20260905155911 31 282 3.2 11.3 0.00 0.00 0.00 69 1013.4
20260905154401 31 251 6.4 12.9 0.00 0.00 0.00 72 1013.6
20260905153905 31 262 4.8 14.5 0.00 0.00 0.00 71 1013.6
20260905152936 31 279 6.4 12.9 0.00 0.00 0.00 74 1013.6
20260905152440 31 263 8.0 12.9 0.00 0.00 0.00 74 1013.6
20260905151918 30 285 3.2 12.9 0.00 0.00 0.00 74 1013.6
20260905151444 31 292 6.4 12.9 0.00 0.00 0.00 74 1013.7
20260905150404 30 275 3.2 11.3 0.00 0.00 0.00 77 1013.7
20260905145938 30 257 6.4 11.3 0.00 0.00 0.00 77 1013.7
20260905145441 30 278 4.8 11.3 0.00 0.00 0.00 77 1013.6
20260905144906 30 273 3.2 12.9 0.00 0.00 0.00 77 1013.7
20260905144413 30 320 4.8 12.9 0.00 0.00 0.00 76 1013.7
20260905143940 30 291 6.4 11.3 0.00 0.00 0.00 76 1013.6
20260905143432 30 283 4.8 11.3 0.00 0.00 0.00 80 1013.5
20260905141920 29 266 6.4 12.9 0.00 0.00 0.00 79 1013.6
20260905141423 29 265 8.0 12.9 0.00 0.00 0.00 80 1013.5
20260905140942 30 270 4.8 11.3 0.00 0.00 0.00 79 1013.7
20260905140418 29 281 4.8 12.9 0.00 0.00 0.00 80 1013.6
20260905135903 29 297 4.8 12.9 0.00 0.00 0.00 81 1013.7
20260905134932 28 284 4.8 12.9 0.00 0.00 0.00 83 1013.7
20260905134404 28 281 6.4 12.9 0.00 0.00 0.00 83 1013.9
20260905133935 28 288 6.4 12.9 0.00 0.00 0.00 84 1013.9
20260905133416 28 294 6.4 12.9 0.00 0.00 0.00 84 1014.0
20260905132915 28 292 6.4 11.3 0.00 0.00 0.00 85 1014.0
20260905131928 28 275 4.8 9.7 0.00 0.00 0.00 87 1014.0
20260905130924 27 290 4.8 14.5 0.00 0.00 0.00 88 1014.1
20260905130407 27 279 3.2 12.9 0.00 0.00 0.00 89 1014.1
20260905125937 27 274 4.8 11.3 0.00 0.00 0.00 89 1014.1
20260905125445 27 293 3.2 9.7 0.00 0.00 0.00 91 1014.0
20260905124946 26 291 1.6 8.0 0.00 0.00 0.00 92 1014.0
20260905124409 26 289 3.2 8.0 0.00 0.00 0.00 92 1013.9
20260905123401 25 277 1.6 6.4 0.00 0.00 0.00 93 1013.8
20260905122912 25 295 3.2 6.4 0.00 0.00 0.00 93 1013.8
20260905122445 25 291 3.2 9.7 0.00 0.00 0.00 93 1013.8
20260905121944 25 291 3.2 9.7 0.00 0.00 0.00 93 1013.7
20260905121430 24 266 1.6 4.8 0.00 0.00 0.00 93 1013.7
20260905120928 24 290 0.0 3.2 0.00 0.00 0.00 93 1013.7
20260905120408 23 292 0.0 3.2 0.00 0.00 0.00 93 1013.7
20260905115925 23 324 0.0 1.6 0.00 0.00 0.00 93 1013.7
20260905115410 23 324 1.6 1.6 0.00 0.00 0.00 93 1013.6
20260905114941 22 324 0.0 1.6 0.00 0.00 0.00 93 1013.6